Regional Weather Roundup
Issued by NWS Newport/Morehead, NC

Home | Current Version | Previous Version | Text Only | Print | Product List | Glossary On
Versions: 1 2 3 4 5 6 7 8 9 10 11 12 13 14 15 16 17 18 19 20 21 22 23 24 25 26 27 28 29 30 31 32 33 34 35 36 37 38 39 40 41 42 43 44 45 46 47 48 49 50
000
ASUS42 KMHX 241213
RWRMHX
WEATHER ROUNDUP FOR EASTERN NORTH CAROLINA
NATIONAL WEATHER SERVICE NEWPORT/MOREHEAD CITY NC
800 AM EDT WED MAY 24 2017

NOTE: "FAIR" INDICATES FEW OR NO CLOUDS BELOW 12,000 FEET
WITH NO SIGNIFICANT WEATHER AND/OR OBSTRUCTIONS TO VISIBILITY

NCZ015>017-031-032-045>047-102-103-241300-
NORTH COAST

CITY           SKY/WX    TMP DP  RH WIND       PRES   REMARKS
EDENTON        CLOUDY    65  64  94 CALM      29.69R FOG
ELIZABETH CITY CLOUDY    63  63 100 N9        29.68R
KITTY HAWK     CLOUDY    63  63 100 CALM      29.66R
MANTEO         CLOUDY    67  67  97 N5        29.67R

$$

NCZ045>047-081-094-103-104-241300-
CENTRAL COAST

CITY           SKY/WX    TMP DP  RH WIND       PRES   REMARKS
FRISCO         CLOUDY    72  68  87 W8        29.68

$$

NCZ095-097-098-100-101-241300-
SOUTHERN COAST

CITY           SKY/WX    TMP DP  RH WIND       PRES   REMARKS
BEAUFORT       CLOUDY    71  69  93 W8        29.68S
CEDAR ISLAND   NOT AVBL
JACKSONVILLE   NOT AVBL
PINEY ISLAND   CLOUDY   N/A N/A N/A W10       29.68R
WILMINGTON     CLOUDY    70  68  93 W7        29.68S


$$

NCZ011>013-027>030-043-044-078>080-089-090>093-098-241300-
COASTAL PLAIN

CITY           SKY/WX    TMP DP  RH WIND       PRES   REMARKS
AHOSKIE        LGT RAIN  61  61  99 CALM      29.70R
CLINTON        PTSUNNY   68  68 100 CALM      29.68S
ELIZABETHTOWN  CLOUDY    68  68 100 W3        29.68S
GOLDSBORO      PTSUNNY   70  70 100 SW6       29.66R
GREENVILLE     CLOUDY    64  64 100 NE6       29.71R FOG
HAVELOCK       CLOUDY    70  67  90 SW5       29.69R
KENANSVILLE    MOSUNNY   68  66  94 W3        29.68R
KINSTON        NOT AVBL
NEW BERN       CLOUDY    69  68  96 W6        29.68F
RICHLANDS      CLOUDY    68  67  96 VRB3      29.69R
ROCKY MOUNT    CLOUDY    65  65 100 CALM      29.69R FOG
WASHINGTON     CLOUDY    67  66  97 W5        29.68R
WHITEVILLE     CLOUDY    69  68  96 CALM      29.67F

$$

AMZ130-135-150-152-154-156-158-170-250-252-270-ANZ085-086-088-633-658-670-241300-
MARINE OBSERVATIONS

STATION/POSITION TIME  TEMP    WIND        PRES    WAVE   SWELL
                       AIR SEA DIR/SP/G            HT/PER HT/PER
                 (UTC) (F)     (DEG/KT/KT) (MB)    (FT/S) (FT/S)
CHESAPEAKE LIGHT NOT AVBL
64 E VA BEACH    1150   62 64  350/  8/  8 1004.5    5/ 7   5/ 7
DUCK             1148   62 63   20/  9/ 11 1004.3
2 E DUCK         1130      64                N/A     4/ 6
OREGON INLET     1142   69 71  270/  6/  8 1004.4
13E OREGON INLT  1148      65                N/A     5/ 7   5/ 7
HATTERAS CG      1148   72 73  270/ 12/ 15 1004.5
DIAMOND BUOY     1150   74 74  260/ 14/ 16 1004.8    6/ 7   3/ 7
CAPE LOOKOUT     1200   71     270/  8/ 10 1005.0
BEAUFORT LAB     1148   70 72  280/  3/  6 1004.3
30 SE NEW RVR IN 1108   73 76  290/ 14/ 16 1004.7
30 SE NEW RVR IN 1143      76                N/A     7/ 8   2/13
27 SE WRIGHTSVLE 1108   72 75  240/ 16/ 21 1004.4
5 SE WRIGHTSVLE  1108   71 74  270/ 10/ 17 1005.0
225 S CAPE HAT   1150   77 76  200/ 21/ 27 1010.2    8/ 7   2/11
41 SE CHARLESTON 1150   74 76  220/ 17/ 21 1005.6    8/ 7

$$




USA.gov is the U.S. government's official web portal to all federal, state and local government web resources and services.